User: anonymous
Location: Lake Superior Provincial Park
(47.3335°N, 84.6162°W)
Time: 11:10:20
(UTC-04:00)
Language:

Cosmos 2333 Rocket - Orbit

View from above orbital plane
View from above orbital plane
View from above satellite
View from above satellite

Ground track
Ground track

The orbit data is extracted from the following two-line orbital elements,

1 24298U 96051B   14210.22292972 -.00000148  00000-0 -53693-4 0  5079
2 24298 070.8661 123.4275 0017744 304.1949 169.9862 14.12471345923009
Epoch (UTC): 29 July 2014 05:21:01
Eccentricity: 0.0017744
inclination: 70.8661°
perigee height: 838 km
apogee height: 864 km
right ascension of ascending node: 123.4275°
argument of perigee: 304.1949°
revolutions per day: 14.12471345
mean anomaly at epoch: 169.9862°
orbit number at epoch: 92300

The dashed part of the orbit path shows where the satellite is in the earth's shadow,  

DLR